Regional Weather Roundup
Issued by NWS San Diego, CA

Home | Current Version | Previous Version | Text Only | Print | Product List | Glossary On
Versions: 1 2 3 4 5 6 7 8 9 10 11 12 13 14 15 16 17 18 19 20 21 22 23 24 25 26 27 28 29 30 31 32 33 34 35 36 37 38 39 40 41 42 43 44 45 46 47 48 49 50
000
ASUS46 KSGX 290711
RWRSGX

SAN DIEGO HOURLY WEATHER ROUNDUP
NATIONAL WEATHER SERVICE SAN DIEGO CA
1200 AM PDT SUN MAR 29 2015

NOTE: "FAIR" INDICATES FEW OR NO CLOUDS BELOW 12,000 FEET WITH NO
SIGNIFICANT WEATHER AND/OR OBSTRUCTIONS TO VISIBILITY.

CAZ042-043-060-061-PZZ750-775-290800-

GREATER SAN DIEGO AREA

CITY           SKY/WX    TMP DP  RH WIND       PRES   REMARKS
LINDBERGH FLD  MOCLDY    65  59  81 CALM      30.06S
POINT LOMA       N/A     59  56  91 N2          N/A
CHULA VISTA      N/A     62  60  93 CALM      29.99S
IMPERIAL BEACH MOCLDY    57  55  93 CALM      30.06S
BROWN FIELD    MOCLDY    58  56  93 SE3       30.05F
MIRAMAR MCAS   MOCLDY    58  50  75 CALM      30.05S
MONTGOMERY FLD MOCLDY    63  57  81 CALM      30.06S

$$

NORTH SAN DIEGO COUNTY

CITY           SKY/WX    TMP DP  RH WIND       PRES   REMARKS
CAMP PENDLETON CLOUDY    59  55  87 NE3       30.05S FOG
OCEANSIDE AP   CLOUDY    61  58  90 CALM      30.04S
VISTA            N/A     60  53  79 CALM      30.04R
CARLSBAD       CLOUDY    63  59  87 CALM      30.05R
FALLBROOK        N/A     60  60 100 CALM      30.05R
SAN MARCOS       N/A     63  56  76 CALM      30.03R
POWAY            N/A     58  52  78 CALM      30.06S

$$

EAST SAN DIEGO COUNTY

CITY           SKY/WX    TMP DP  RH WIND       PRES   REMARKS
RAMONA         MOCLDY    54  40  59 CALM      30.08S
SANTEE LAKES     N/A     59  50  73 CALM      30.05S
LA MESA          N/A     63  58  83 CALM      29.99S
DESCANSO N       N/A     54  28  36 E5        29.96S
MT. LAGUNA OBS   N/A     58  11  15 NW3       29.81S
CAMPO            N/A     50  38  63 NE7       30.10S

$$

ORANGE COUNTY AND THE LOS ANGELES BASIN

CITY           SKY/WX    TMP DP  RH WIND       PRES   REMARKS
JOHN WAYNE AP  PTCLDY    61  58  90 S3        30.05S
LAKE FOREST FR   N/A     63  40  43 CALM      29.93R
SANTA ANA        N/A     62  55  77 CALM      30.00S
HUNTINGTON BCH   N/A     61  59  94 W3        30.06S
LOS ALAMITOS   FAIR      59  57  92 CALM      30.04S
FULLERTON      PTCLDY    64  57  78 CALM      30.04S
LONG BEACH     PTCLDY    62  57  83 NW3       30.04F
L.A. AP        PTCLDY    59  57  93 SW3       30.05F
L.A. DOWNTOWN  CLEAR     61  57  87 CALM      30.05R

$$

THE INLAND EMPIRE

CITY           SKY/WX    TMP DP  RH WIND       PRES   REMARKS
CORONA         CLEAR     53  49  86 CALM      30.06S
CHINO          CLEAR     59  50  72 CALM      30.07R
ONTARIO        PTCLDY    67  49  52 CALM      30.06S
RIVERSIDE AP   CLEAR     64  38  38 CALM      30.06S
MARCH ARB      PTCLDY    58  34  41 CALM      30.08S
HORSETHIEF CYN   N/A     62  29  28 SW3       30.02S
MENIFEE          N/A     63  47  56 CALM      30.11R
HEMET EAST       N/A     64  25  23 CALM      30.05S
FRENCH VALLEY  FAIR      63  41  45 CALM      30.08S
TEMECULA         N/A     63  44  49 CALM      30.04R

$$

SAN BERNARDINO AND RIVERSIDE COUNTY MOUNTAINS

CITY           SKY/WX    TMP DP  RH WIND       PRES   REMARKS
BIG BEAR AP    CLEAR     34  18  51 CALM      30.33S

$$

SOUTHERN DESERT INCLUDING THE COACHELLA VALLEY

CITY           SKY/WX    TMP DP  RH WIND       PRES   REMARKS
PALM SPRINGS   PTCLDY    77  37  23 CALM      29.97S
THOUSAND PALMS   N/A     81  35  19 NW13      29.94S
THERMAL        PTCLDY    80  31  16 NW10      29.91S
BLYTHE         CLEAR     77  30  17 SW5       29.94S
IMPERIAL AP    MOCLDY    72  37  28 W7        29.93R
EL CENTRO NAS  PTCLDY    72  28  19 W6        29.93S
YUMA AZ        PTCLDY    77  37  23 SE3       29.95S

$$

UPPER DESERT

CITY           SKY/WX    TMP DP  RH WIND       PRES   REMARKS
VICTORVILLE AP CLEAR     61  19  20 SW7       30.13R
HESPERIA         N/A     63  28  26 CALM      30.15R
APPLE VALLEY     N/A     65  28  24 CALM      30.15R
PALMDALE       CLEAR     57  22  25 CALM      30.11S
LANCASTER      CLEAR     61  34  36 W15       30.11R
EDWARDS AFB    CLEAR     59  36  42 SW10      30.07F
DAGGETT        CLEAR     68  18  14 W14       30.06S
29 PALMS N     PTCLDY    71  24  17 W8        30.11S
NEEDLES        CLEAR     74  23  15 CALM      29.97R

$$

REGIONAL REPORTS

CITY           SKY/WX    TMP DP  RH WIND       PRES   REMARKS
SANTA BARBARA  CLEAR     59  55  87 E3        30.03S
SANDBERG       PTCLDY    58  36  43 NW16      30.21S
MT. WILSON       N/A     55   0  10 S5          N/A
LAS VEGAS NV   CLEAR     73  16  11 S13       29.98S
PHOENIX AZ     PTCLDY    75  28  17 E8        29.97S
TIJUANA        CLOUDY    61  57  88 CALM      30.08S
ENSENADA NW      N/A     62  32  31 CALM      30.03F

$$

OFFSHORE ISLANDS

CITY           SKY/WX    TMP DP  RH WIND       PRES   REMARKS
CATALINA ARPT  MOCLDY    67  40  37 SE5       30.09S
SAN NICOLAS IS PTCLDY   N/A N/A N/A W6        30.05S

$$

MARINE AND OFFSHORE BUOY REPORTS

STATION/POSITION SKY/WX   TEMP    WIND        PRES    SWELL
                          AIR SEA DIR/SP/G            HT/PER/DIR
                          (F)     (DEG/KT/KT) (MB)    (FT/S/D)
TANNER BANKS               60 61  300/ 12/ 14 1018.3R   7/180/16
S CLEMENTE BASIN           62 65  290/ 10/ 12 1017.9R   7/230/16
SAN NICOLAS IS.               60                N/A     5/190/17
SO. S. ROSA ISLA           60 60  300/ 10/ 10 1016.9R   7/16
W. S. BARBARA CH           58 60  310/ 16/ 17 1016.6S   7/310/12
S. MONICA BASIN            61 64  230/  4/  4 1017.6R   3/220/17
S PEDRO CHANNEL               64                N/A     2/260/12
DANA POINT                    65                N/A     5/200/17
CMP PENDLETON NS              66                N/A     3/220/18
OCEANSIDE OFFSHR              66                N/A     3/190/17
TORREY PINES OTR              66                N/A     3/200/17
MISSION BAY BUOY              66                N/A     5/200/15
POINT LOMA SOUTH              66                N/A     5/200/17

$$



USA.gov is the U.S. government's official web portal to all federal, state and local government web resources and services.